| time (UTC) | temp F | wind direction | speed knots | gust knots | rain 1hr in | rain 24hr in | rain mn in | humidity % | barometer mb |
| 20260507075835 | 34 | 22 | 5.2 | 9.6 | 0.00 | 0.05 | 0.00 | 50 | 1023.9 |
| 20260507075335 | 34 | 31 | 3.5 | 9.6 | 0.00 | 0.05 | 0.00 | 50 | 1024.0 |
| 20260507074941 | 34 | 24 | 5.2 | 7.8 | 0.00 | 0.05 | 0.00 | 50 | 1024.0 |
| 20260507074835 | 34 | 24 | 5.2 | 7.8 | 0.00 | 0.05 | 0.00 | 50 | 1024.0 |
| 20260507074334 | 34 | 22 | 4.3 | 7.0 | 0.00 | 0.05 | 0.00 | 50 | 1023.9 |
| 20260507073834 | 34 | 26 | 5.2 | 10.4 | 0.00 | 0.05 | 0.00 | 50 | 1023.9 |
| 20260507073334 | 35 | 3 | 7.0 | 11.3 | 0.00 | 0.05 | 0.00 | 48 | 1023.9 |
| 20260507072834 | 34 | 28 | 7.0 | 13.0 | 0.00 | 0.05 | 0.00 | 50 | 1023.8 |
| 20260507072334 | 34 | 19 | 8.7 | 13.0 | 0.00 | 0.05 | 0.00 | 52 | 1023.9 |
| 20260507071834 | 34 | 18 | 8.7 | 10.4 | 0.00 | 0.05 | 0.00 | 53 | 1023.8 |
| 20260507071334 | 34 | 20 | 6.1 | 8.7 | 0.00 | 0.05 | 0.00 | 53 | 1023.9 |
| 20260507070834 | 34 | 17 | 5.2 | 8.7 | 0.00 | 0.05 | 0.00 | 54 | 1024.0 |
| 20260507070005 | 34 | 32 | 5.2 | 7.8 | 0.00 | 0.05 | 0.05 | 54 | 1024.1 |
| 20260507065503 | 33 | 16 | 5.2 | 7.8 | 0.00 | 0.05 | 0.05 | 56 | 1024.1 |
| 20260507065003 | 33 | 24 | 4.3 | 6.1 | 0.00 | 0.05 | 0.05 | 56 | 1024.0 |
| 20260507064503 | 33 | 26 | 4.3 | 7.0 | 0.00 | 0.05 | 0.05 | 56 | 1024.0 |
| 20260507064003 | 34 | 27 | 4.3 | 7.0 | 0.00 | 0.05 | 0.05 | 55 | 1024.2 |
| 20260507063503 | 34 | 31 | 4.3 | 7.8 | 0.00 | 0.05 | 0.05 | 54 | 1023.6 |
| 20260507063002 | 34 | 26 | 5.2 | 7.8 | 0.00 | 0.05 | 0.05 | 53 | 1023.7 |
| 20260507062502 | 34 | 35 | 3.5 | 7.8 | 0.00 | 0.05 | 0.05 | 53 | 1023.7 |
| 20260507062134 | 35 | 34 | 4.3 | 7.8 | 0.00 | 0.05 | 0.05 | 52 | 1023.7 |
| 20260507062002 | 35 | 34 | 4.3 | 7.8 | 0.00 | 0.05 | 0.05 | 52 | 1023.7 |
| 20260507061546 | 35 | 26 | 4.3 | 7.8 | 0.00 | 0.05 | 0.05 | 52 | 1023.7 |
| 20260507061502 | 35 | 26 | 4.3 | 7.8 | 0.00 | 0.05 | 0.05 | 52 | 1023.7 |
| 20260507061002 | 35 | 39 | 3.5 | 8.7 | 0.00 | 0.05 | 0.05 | 52 | 1024.0 |
| 20260507060502 | 35 | 26 | 4.3 | 8.7 | 0.00 | 0.05 | 0.05 | 52 | 1024.0 |
| 20260507055619 | 35 | 9 | 7.0 | 11.3 | 0.00 | 0.05 | 0.05 | 53 | 1023.9 |
| 20260507055534 | 35 | 9 | 7.0 | 11.3 | 0.00 | 0.05 | 0.05 | 53 | 1023.9 |
| 20260507055034 | 35 | 16 | 7.8 | 11.3 | 0.00 | 0.05 | 0.05 | 52 | 1023.8 |
| 20260507054534 | 35 | 20 | 7.0 | 9.6 | 0.00 | 0.05 | 0.05 | 52 | 1023.8 |
| 20260507054033 | 35 | 27 | 5.2 | 9.6 | 0.00 | 0.05 | 0.05 | 52 | 1024.0 |
| 20260507053533 | 35 | 21 | 6.1 | 10.4 | 0.00 | 0.05 | 0.05 | 51 | 1024.0 |
| 20260507053033 | 35 | 19 | 7.0 | 10.4 | 0.00 | 0.05 | 0.05 | 51 | 1023.9 |
| 20260507051732 | 35 | 20 | 7.0 | 10.4 | 0.00 | 0.05 | 0.05 | 50 | 1024.0 |
| 20260507051232 | 35 | 25 | 6.1 | 10.4 | 0.00 | 0.05 | 0.05 | 50 | 1024.1 |
| 20260507050733 | 36 | 24 | 5.2 | 11.3 | 0.00 | 0.05 | 0.05 | 48 | 1024.1 |
| 20260507045732 | 36 | 21 | 7.0 | 12.2 | 0.00 | 0.05 | 0.05 | 47 | 1024.2 |
| 20260507045232 | 36 | 28 | 7.0 | 11.3 | 0.00 | 0.05 | 0.05 | 45 | 1023.4 |
| 20260507044332 | 36 | 23 | 6.1 | 9.6 | 0.00 | 0.05 | 0.05 | 43 | 1023.5 |
| 20260507043833 | 36 | 12 | 7.0 | 10.4 | 0.00 | 0.05 | 0.05 | 42 | 1023.6 |
| 20260507043333 | 36 | 13 | 5.2 | 10.4 | 0.00 | 0.05 | 0.05 | 42 | 1023.5 |
| 20260507041832 | 37 | 16 | 4.3 | 13.0 | 0.00 | 0.05 | 0.05 | 42 | 1023.8 |
| 20260507041332 | 37 | 8 | 8.7 | 13.0 | 0.00 | 0.05 | 0.05 | 41 | 1023.9 |
| 20260507040832 | 37 | 20 | 5.2 | 14.8 | 0.00 | 0.05 | 0.05 | 40 | 1023.9 |
| 20260507040332 | 37 | 28 | 6.1 | 14.8 | 0.00 | 0.05 | 0.05 | 40 | 1023.7 |
| 20260507035832 | 37 | 360 | 7.0 | 11.3 | 0.00 | 0.05 | 0.05 | 41 | 1023.8 |
| 20260507035332 | 37 | 43 | 5.2 | 10.4 | 0.00 | 0.05 | 0.05 | 40 | 1023.7 |
| 20260507034833 | 37 | 13 | 6.1 | 10.4 | 0.00 | 0.05 | 0.05 | 41 | 1023.6 |
| 20260507034332 | 37 | 29 | 2.6 | 8.7 | 0.00 | 0.05 | 0.05 | 42 | 1023.7 |
| 20260507033832 | 38 | 33 | 6.1 | 13.9 | 0.00 | 0.05 | 0.05 | 42 | 1023.8 |
| 20260507033332 | 38 | 16 | 6.1 | 13.9 | 0.00 | 0.05 | 0.05 | 44 | 1023.7 |
| 20260507032832 | 38 | 21 | 7.8 | 12.2 | 0.00 | 0.05 | 0.05 | 44 | 1023.7 |
| 20260507032332 | 38 | 19 | 6.1 | 13.0 | 0.00 | 0.05 | 0.05 | 43 | 1023.5 |
| 20260507031832 | 38 | 359 | 7.0 | 13.0 | 0.00 | 0.05 | 0.05 | 43 | 1023.5 |
| 20260507031333 | 37 | 20 | 5.2 | 13.0 | 0.00 | 0.05 | 0.05 | 44 | 1023.5 |
| 20260507030833 | 38 | 11 | 6.1 | 13.0 | 0.00 | 0.05 | 0.05 | 45 | 1023.4 |
| 20260507030243 | 38 | 26 | 7.8 | 11.3 | 0.00 | 0.05 | 0.05 | 45 | 1022.7 |
| 20260507025744 | 38 | 13 | 5.2 | 10.4 | 0.00 | 0.05 | 0.05 | 44 | 1022.6 |
| 20260507025244 | 38 | 6 | 7.0 | 10.4 | 0.00 | 0.05 | 0.05 | 45 | 1022.6 |
| 20260507024744 | 38 | 29 | 5.2 | 12.2 | 0.00 | 0.05 | 0.05 | 44 | 1022.6 |
| 20260507024244 | 38 | 34 | 6.1 | 12.2 | 0.00 | 0.05 | 0.05 | 46 | 1022.6 |
| 20260507023744 | 38 | 18 | 7.0 | 11.3 | 0.00 | 0.05 | 0.05 | 46 | 1022.6 |
| 20260507023244 | 38 | 11 | 6.1 | 11.3 | 0.00 | 0.05 | 0.05 | 45 | 1022.4 |
| 20260507022743 | 38 | 9 | 7.0 | 11.3 | 0.00 | 0.05 | 0.05 | 45 | 1022.6 |
| 20260507021743 | 39 | 12 | 5.2 | 13.0 | 0.00 | 0.05 | 0.05 | 43 | 1022.6 |
| 20260507021242 | 39 | 4 | 6.1 | 11.3 | 0.00 | 0.05 | 0.05 | 44 | 1022.6 |
| 20260507020743 | 39 | 9 | 7.0 | 10.4 | 0.00 | 0.05 | 0.05 | 42 | 1022.6 |
| 20260507020243 | 40 | 11 | 5.2 | 10.4 | 0.00 | 0.05 | 0.05 | 42 | 1022.8 |
| 20260507015743 | 40 | 18 | 4.3 | 10.4 | 0.00 | 0.05 | 0.05 | 42 | 1022.7 |
| 20260507015243 | 40 | 16 | 3.5 | 10.4 | 0.00 | 0.05 | 0.05 | 42 | 1022.7 |
| 20260507014743 | 40 | 354 | 5.2 | 10.4 | 0.00 | 0.05 | 0.05 | 40 | 1022.6 |
| 20260507014243 | 39 | 346 | 4.3 | 10.4 | 0.00 | 0.05 | 0.05 | 42 | 1022.6 |
| 20260507013531 | 39 | 13 | 6.1 | 11.3 | 0.00 | 0.05 | 0.05 | 43 | 1022.5 |
| 20260507013031 | 39 | 1 | 7.8 | 10.4 | 0.00 | 0.05 | 0.05 | 44 | 1022.6 |
| 20260507012233 | 39 | 4 | 7.0 | 10.4 | 0.00 | 0.05 | 0.05 | 47 | 1022.4 |
| 20260507011733 | 39 | 357 | 7.0 | 10.4 | 0.00 | 0.05 | 0.05 | 47 | 1022.6 |
| 20260507011233 | 40 | 14 | 4.3 | 9.6 | 0.00 | 0.05 | 0.05 | 50 | 1022.0 |
| 20260507010733 | 40 | 5 | 6.1 | 9.6 | 0.00 | 0.05 | 0.05 | 51 | 1022.1 |
| 20260507010233 | 40 | 2 | 6.1 | 12.2 | 0.00 | 0.05 | 0.05 | 51 | 1022.1 |
| 20260507005733 | 41 | 358 | 7.0 | 12.2 | 0.00 | 0.05 | 0.05 | 48 | 1022.2 |
| 20260507005233 | 42 | 345 | 5.2 | 11.3 | 0.00 | 0.05 | 0.05 | 47 | 1022.1 |
| 20260507004733 | 43 | 352 | 7.0 | 10.4 | 0.00 | 0.05 | 0.05 | 45 | 1022.2 |
| 20260507004233 | 44 | 354 | 4.3 | 11.3 | 0.00 | 0.05 | 0.05 | 45 | 1022.2 |
| 20260507003732 | 43 | 351 | 5.2 | 11.3 | 0.00 | 0.05 | 0.05 | 46 | 1022.2 |
| 20260507003233 | 43 | 10 | 7.0 | 14.8 | 0.00 | 0.05 | 0.05 | 46 | 1022.1 |
| 20260507002733 | 43 | 88 | 9.6 | 17.4 | 0.00 | 0.05 | 0.05 | 45 | 1022.2 |
| 20260507002233 | 43 | 11 | 9.6 | 17.4 | 0.00 | 0.05 | 0.05 | 45 | 1022.1 |
| 20260507001733 | 43 | 350 | 7.8 | 14.8 | 0.00 | 0.05 | 0.05 | 45 | 1022.2 |
| 20260507001233 | 43 | 75 | 9.6 | 13.9 | 0.00 | 0.05 | 0.05 | 45 | 1022.1 |
| 20260507000733 | 42 | 8 | 6.1 | 13.0 | 0.01 | 0.05 | 0.05 | 48 | 1022.1 |
| 20260507000234 | 41 | 347 | 4.3 | 12.2 | 0.01 | 0.05 | 0.05 | 46 | 1021.6 |
| 20260506235732 | 42 | 11 | 6.1 | 11.3 | 0.01 | 0.05 | 0.05 | 47 | 1021.5 |
| 20260506235233 | 41 | 324 | 3.5 | 8.7 | 0.01 | 0.05 | 0.05 | 48 | 1021.5 |
| 20260506234733 | 41 | 7 | 4.3 | 8.7 | 0.01 | 0.05 | 0.05 | 46 | 1021.7 |
| 20260506234233 | 42 | 4 | 3.5 | 7.8 | 0.01 | 0.05 | 0.05 | 47 | 1022.0 |
| 20260506233733 | 42 | 2 | 4.3 | 8.7 | 0.01 | 0.05 | 0.05 | 50 | 1021.9 |
| 20260506233233 | 43 | 296 | 2.6 | 11.3 | 0.01 | 0.05 | 0.05 | 45 | 1022.0 |
| 20260506232733 | 43 | 1 | 5.2 | 11.3 | 0.01 | 0.05 | 0.05 | 46 | 1022.0 |
| 20260506232233 | 42 | 345 | 2.6 | 13.9 | 0.01 | 0.05 | 0.05 | 46 | 1021.9 |
| 20260506231733 | 42 | 4 | 6.1 | 14.8 | 0.01 | 0.05 | 0.05 | 47 | 1022.0 |
| 20260506231233 | 43 | 357 | 7.8 | 14.8 | 0.01 | 0.05 | 0.05 | 44 | 1022.0 |
| 20260506230733 | 43 | 359 | 6.1 | 13.0 | 0.00 | 0.04 | 0.04 | 45 | 1022.1 |
| 20260506230233 | 43 | 347 | 6.1 | 13.0 | 0.00 | 0.04 | 0.04 | 44 | 1021.5 |
| 20260506225733 | 43 | 340 | 5.2 | 11.3 | 0.00 | 0.04 | 0.04 | 46 | 1021.4 |
| 20260506224831 | 42 | 1 | 6.1 | 12.2 | 0.00 | 0.04 | 0.04 | 47 | 1021.4 |
| 20260506224331 | 42 | 357 | 4.3 | 10.4 | 0.00 | 0.04 | 0.04 | 46 | 1021.5 |
| 20260506223832 | 43 | 349 | 5.2 | 11.3 | 0.00 | 0.04 | 0.04 | 45 | 1021.5 |
| 20260506223334 | 44 | 357 | 7.0 | 11.3 | 0.00 | 0.04 | 0.04 | 42 | 1021.7 |
| 20260506222832 | 43 | 346 | 4.3 | 13.0 | 0.00 | 0.04 | 0.04 | 48 | 1021.5 |
| 20260506222334 | 43 | 3 | 5.2 | 13.0 | 0.00 | 0.04 | 0.04 | 45 | 1021.7 |
| 20260506221831 | 44 | 14 | 8.7 | 13.0 | 0.00 | 0.04 | 0.04 | 42 | 1021.6 |
| 20260506221331 | 44 | 280 | 3.5 | 14.8 | 0.00 | 0.04 | 0.04 | 45 | 1021.8 |
| 20260506220831 | 43 | 6 | 7.0 | 14.8 | 0.00 | 0.04 | 0.04 | 42 | 1021.9 |
| 20260506220334 | 44 | 8 | 6.1 | 13.0 | 0.00 | 0.04 | 0.04 | 46 | 1021.9 |
| 20260506220243 | 44 | 351 | 4.3 | 12.2 | 0.00 | 0.04 | 0.04 | 46 | 1022.0 |
| 20260506215832 | 44 | 351 | 4.3 | 12.2 | 0.00 | 0.04 | 0.04 | 46 | 1022.0 |
| 20260506215332 | 43 | 332 | 2.6 | 12.2 | 0.00 | 0.04 | 0.04 | 46 | 1022.0 |
| 20260506215143 | 44 | 358 | 6.1 | 12.2 | 0.00 | 0.04 | 0.04 | 44 | 1022.0 |
| 20260506214736 | 44 | 358 | 6.1 | 12.2 | 0.00 | 0.04 | 0.04 | 44 | 1022.0 |
| 20260506214236 | 43 | 297 | 3.5 | 11.3 | 0.00 | 0.04 | 0.04 | 48 | 1022.1 |
| 20260506214028 | 42 | 351 | 3.5 | 11.3 | 0.00 | 0.04 | 0.04 | 49 | 1021.6 |
| 20260506213735 | 42 | 351 | 3.5 | 11.3 | 0.00 | 0.04 | 0.04 | 49 | 1021.6 |
| 20260506213235 | 42 | 24 | 4.3 | 12.2 | 0.00 | 0.04 | 0.04 | 50 | 1021.7 |
| 20260506212735 | 41 | 354 | 5.2 | 13.0 | 0.00 | 0.04 | 0.04 | 52 | 1021.6 |
| 20260506212236 | 41 | 1 | 7.0 | 13.9 | 0.00 | 0.04 | 0.04 | 49 | 1021.6 |
| 20260506211735 | 41 | 356 | 7.8 | 13.9 | 0.00 | 0.04 | 0.04 | 52 | 1021.8 |
| 20260506211235 | 41 | 353 | 4.3 | 10.4 | 0.00 | 0.04 | 0.04 | 50 | 1021.9 |
| 20260506210735 | 41 | 22 | 5.2 | 11.3 | 0.00 | 0.04 | 0.04 | 50 | 1022.0 |
| 20260506210235 | 41 | 121 | 7.0 | 11.3 | 0.00 | 0.04 | 0.04 | 48 | 1021.9 |
| 20260506205736 | 41 | 355 | 5.2 | 13.9 | 0.00 | 0.04 | 0.04 | 53 | 1021.9 |
| 20260506205236 | 40 | 325 | 5.2 | 13.9 | 0.00 | 0.04 | 0.04 | 53 | 1021.9 |
| 20260506205008 | 40 | 343 | 7.8 | 13.0 | 0.00 | 0.04 | 0.04 | 53 | 1022.0 |
| 20260506204735 | 40 | 343 | 7.8 | 13.0 | 0.00 | 0.04 | 0.04 | 53 | 1022.0 |
| 20260506204235 | 40 | 333 | 4.3 | 12.2 | 0.00 | 0.04 | 0.04 | 54 | 1021.9 |
| 20260506203735 | 40 | 287 | 4.3 | 14.8 | 0.00 | 0.04 | 0.04 | 58 | 1021.9 |
| 20260506203235 | 39 | 338 | 5.2 | 14.8 | 0.00 | 0.04 | 0.04 | 56 | 1021.9 |
| 20260506203123 | 39 | 357 | 6.1 | 12.2 | 0.00 | 0.04 | 0.04 | 57 | 1021.9 |
| 20260506202736 | 39 | 357 | 6.1 | 12.2 | 0.00 | 0.04 | 0.04 | 57 | 1021.9 |
| 20260506202236 | 39 | 288 | 3.5 | 12.2 | 0.01 | 0.04 | 0.04 | 60 | 1021.8 |
| 20260506201735 | 38 | 350 | 7.8 | 12.2 | 0.03 | 0.04 | 0.04 | 58 | 1021.9 |
| 20260506201235 | 39 | 341 | 4.3 | 13.0 | 0.04 | 0.04 | 0.04 | 60 | 1021.9 |
| 20260506200735 | 38 | 356 | 7.0 | 20.0 | 0.04 | 0.04 | 0.04 | 56 | 1021.9 |
| 20260506200236 | 39 | 342 | 8.7 | 20.0 | 0.04 | 0.04 | 0.04 | 56 | 1021.9 |
| 20260506195959 | 39 | 340 | 6.1 | 11.3 | 0.04 | 0.04 | 0.04 | 55 | 1021.8 |
| 20260506195736 | 39 | 340 | 6.1 | 11.3 | 0.04 | 0.04 | 0.04 | 55 | 1021.8 |
| 20260506195029 | 38 | 350 | 7.8 | 12.2 | 0.04 | 0.04 | 0.04 | 53 | 1021.6 |
| 20260506194531 | 39 | 344 | 7.0 | 12.2 | 0.04 | 0.04 | 0.04 | 54 | 1021.7 |
| 20260506194029 | 39 | 332 | 7.0 | 12.2 | 0.04 | 0.04 | 0.04 | 54 | 1021.6 |
| 20260506193834 | 39 | 342 | 4.3 | 9.6 | 0.04 | 0.04 | 0.04 | 58 | 1021.4 |
| 20260506193529 | 39 | 342 | 4.3 | 9.6 | 0.04 | 0.04 | 0.04 | 58 | 1021.4 |
| 20260506193029 | 38 | 326 | 6.1 | 10.4 | 0.04 | 0.04 | 0.04 | 57 | 1021.3 |
| 20260506192529 | 37 | 349 | 6.1 | 11.3 | 0.03 | 0.03 | 0.03 | 52 | 1021.2 |
| 20260506192029 | 38 | 349 | 6.1 | 11.3 | 0.02 | 0.02 | 0.02 | 55 | 1021.0 |
| 20260506191530 | 37 | 336 | 4.3 | 9.6 | 0.00 | 0.00 | 0.00 | 58 | 1020.2 |
| 20260506191029 | 36 | 342 | 2.6 | 7.8 | 0.00 | 0.00 | 0.00 | 68 | 1020.2 |
| 20260506190332 | 36 | 343 | 4.3 | 13.0 | 0.00 | 0.00 | 0.00 | 63 | 1020.2 |
| 20260506185832 | 36 | 339 | 6.1 | 10.4 | 0.00 | 0.00 | 0.00 | 63 | 1020.2 |
| 20260506185332 | 36 | 339 | 3.5 | 14.8 | 0.00 | 0.00 | 0.00 | 62 | 1020.2 |
| 20260506184832 | 36 | 345 | 8.7 | 14.8 | 0.00 | 0.00 | 0.00 | 58 | 1020.1 |
| 20260506184332 | 36 | 339 | 6.1 | 10.4 | 0.00 | 0.00 | 0.00 | 57 | 1020.1 |
| 20260506183831 | 36 | 343 | 5.2 | 10.4 | 0.00 | 0.00 | 0.00 | 59 | 1020.1 |
| 20260506183249 | 36 | 340 | 6.1 | 14.8 | 0.00 | 0.00 | 0.00 | 59 | 1020.1 |
| 20260506182749 | 35 | 337 | 8.7 | 14.8 | 0.00 | 0.00 | 0.00 | 64 | 1020.0 |
| 20260506182540 | 35 | 333 | 6.1 | 11.3 | 0.00 | 0.00 | 0.00 | 64 | 1020.2 |
| 20260506182249 | 35 | 333 | 6.1 | 11.3 | 0.00 | 0.00 | 0.00 | 64 | 1020.2 |
| 20260506181751 | 35 | 338 | 6.1 | 11.3 | 0.00 | 0.00 | 0.00 | 62 | 1020.1 |
| 20260506181249 | 34 | 336 | 4.3 | 13.0 | 0.00 | 0.00 | 0.00 | 66 | 1020.1 |
| 20260506180750 | 34 | 342 | 7.8 | 13.0 | 0.00 | 0.00 | 0.00 | 66 | 1020.0 |
| 20260506180250 | 34 | 347 | 5.2 | 13.0 | 0.00 | 0.00 | 0.00 | 66 | 1020.1 |
| 20260506175749 | 34 | 349 | 7.8 | 13.0 | 0.00 | 0.00 | 0.00 | 65 | 1020.2 |
| 20260506175249 | 34 | 344 | 4.3 | 11.3 | 0.00 | 0.00 | 0.00 | 71 | 1020.0 |
| 20260506174749 | 33 | 354 | 6.1 | 16.5 | 0.00 | 0.00 | 0.00 | 69 | 1019.7 |
| 20260506174249 | 33 | 347 | 7.8 | 16.5 | 0.00 | 0.00 | 0.00 | 72 | 1019.7 |
| 20260506174104 | 32 | 345 | 8.7 | 13.9 | 0.00 | 0.00 | 0.00 | 70 | 1019.5 |
| 20260506173749 | 32 | 345 | 8.7 | 13.9 | 0.00 | 0.00 | 0.00 | 70 | 1019.5 |
| 20260506173251 | 32 | 331 | 7.0 | 13.9 | 0.00 | 0.00 | 0.00 | 71 | 1019.5 |
| 20260506172749 | 32 | 351 | 8.7 | 15.6 | 0.00 | 0.00 | 0.00 | 72 | 1019.5 |
| 20260506172249 | 31 | 349 | 10.4 | 15.6 | 0.00 | 0.00 | 0.00 | 71 | 1019.4 |
| 20260506171749 | 31 | 334 | 8.7 | 17.4 | 0.00 | 0.00 | 0.00 | 73 | 1019.3 |
| 20260506171249 | 31 | 351 | 9.6 | 17.4 | 0.00 | 0.00 | 0.00 | 72 | 1018.6 |
| 20260506170749 | 32 | 345 | 7.8 | 15.6 | 0.00 | 0.00 | 0.00 | 73 | 1018.5 |
| 20260506170250 | 31 | 341 | 7.0 | 13.0 | 0.00 | 0.00 | 0.00 | 73 | 1018.8 |
| 20260506165750 | 31 | 359 | 7.8 | 13.0 | 0.00 | 0.00 | 0.00 | 74 | 1018.8 |
| 20260506165249 | 30 | 351 | 7.8 | 13.0 | 0.00 | 0.00 | 0.00 | 74 | 1018.8 |
| 20260506164749 | 30 | 359 | 7.8 | 13.9 | 0.00 | 0.00 | 0.00 | 73 | 1018.6 |
| 20260506164249 | 30 | 353 | 7.8 | 13.9 | 0.00 | 0.00 | 0.00 | 73 | 1018.6 |
| 20260506163749 | 30 | 354 | 6.1 | 13.0 | 0.00 | 0.00 | 0.00 | 74 | 1018.5 |
| 20260506163249 | 30 | 354 | 8.7 | 13.0 | 0.00 | 0.00 | 0.00 | 74 | 1018.4 |
| 20260506161750 | 29 | 344 | 9.6 | 15.6 | 0.00 | 0.00 | 0.00 | 73 | 1018.3 |
| 20260506161249 | 29 | 357 | 7.0 | 14.8 | 0.00 | 0.00 | 0.00 | 73 | 1018.4 |
| 20260506160749 | 29 | 352 | 8.7 | 13.9 | 0.00 | 0.00 | 0.00 | 73 | 1018.5 |
| 20260506155940 | 29 | 347 | 8.7 | 19.1 | 0.00 | 0.00 | 0.00 | 73 | 1018.7 |
| 20260506155442 | 28 | 358 | 8.7 | 16.5 | 0.00 | 0.00 | 0.00 | 74 | 1018.9 |
| 20260506154941 | 28 | 1 | 11.3 | 16.5 | 0.00 | 0.00 | 0.00 | 73 | 1018.7 |
| 20260506154442 | 28 | 348 | 8.7 | 15.6 | 0.00 | 0.00 | 0.00 | 74 | 1018.7 |
| 20260506153942 | 28 | 360 | 9.6 | 15.6 | 0.00 | 0.00 | 0.00 | 75 | 1018.6 |
| 20260506153440 | 28 | 351 | 11.3 | 15.6 | 0.00 | 0.00 | 0.00 | 74 | 1018.5 |
| 20260506152941 | 28 | 353 | 9.6 | 16.5 | 0.00 | 0.00 | 0.00 | 75 | 1018.5 |
| 20260506152442 | 28 | 356 | 13.0 | 16.5 | 0.00 | 0.00 | 0.00 | 74 | 1018.6 |
| 20260506151855 | 28 | 15 | 10.4 | 16.5 | 0.00 | 0.00 | 0.00 | 74 | 1018.6 |
| 20260506151644 | 28 | 5 | 13.0 | 16.5 | 0.00 | 0.00 | 0.00 | 74 | 1018.5 |
| 20260506151355 | 28 | 5 | 13.0 | 16.5 | 0.00 | 0.00 | 0.00 | 74 | 1018.5 |
| 20260506151212 | 28 | 3 | 8.7 | 13.0 | 0.00 | 0.00 | 0.00 | 75 | 1018.3 |
| 20260506150856 | 28 | 3 | 8.7 | 13.0 | 0.00 | 0.00 | 0.00 | 75 | 1018.3 |
| 20260506150358 | 28 | 356 | 8.7 | 13.9 | 0.00 | 0.00 | 0.00 | 76 | 1018.2 |
| 20260506145856 | 28 | 7 | 7.8 | 17.4 | 0.00 | 0.00 | 0.00 | 76 | 1017.9 |
| 20260506145356 | 28 | 342 | 7.0 | 17.4 | 0.00 | 0.00 | 0.00 | 76 | 1017.8 |
| 20260506144855 | 28 | 1 | 8.7 | 17.4 | 0.00 | 0.00 | 0.00 | 77 | 1017.7 |
| 20260506144356 | 27 | 17 | 11.3 | 16.5 | 0.00 | 0.00 | 0.00 | 78 | 1017.5 |
| 20260506143855 | 27 | 358 | 11.3 | 17.4 | 0.00 | 0.00 | 0.00 | 78 | 1017.4 |
| 20260506143358 | 27 | 7 | 11.3 | 17.4 | 0.00 | 0.00 | 0.00 | 79 | 1017.1 |
| 20260506142856 | 27 | 3 | 10.4 | 13.9 | 0.00 | 0.00 | 0.00 | 81 | 1016.9 |
| 20260506142403 | 26 | 12 | 11.3 | 15.6 | 0.00 | 0.00 | 0.00 | 81 | 1016.8 |
| 20260506142107 | 26 | 12 | 11.3 | 15.6 | 0.00 | 0.00 | 0.00 | 81 | 1016.8 |
| 20260506141607 | 26 | 16 | 9.6 | 13.9 | 0.00 | 0.00 | 0.00 | 80 | 1016.8 |
| 20260506141107 | 26 | 16 | 10.4 | 15.6 | 0.00 | 0.00 | 0.00 | 80 | 1016.9 |
| 20260506140608 | 27 | 20 | 11.3 | 17.4 | 0.00 | 0.00 | 0.00 | 80 | 1016.8 |
| 20260506140320 | 26 | 12 | 11.3 | 18.2 | 0.00 | 0.00 | 0.00 | 80 | 1016.7 |
| 20260506140107 | 26 | 12 | 11.3 | 18.2 | 0.00 | 0.00 | 0.00 | 80 | 1016.7 |
| 20260506135748 | 26 | 14 | 13.0 | 20.0 | 0.00 | 0.00 | 0.00 | 80 | 1016.4 |
| 20260506135608 | 26 | 14 | 13.0 | 20.0 | 0.00 | 0.00 | 0.00 | 80 | 1016.4 |
| 20260506135108 | 26 | 1 | 12.2 | 20.0 | 0.00 | 0.00 | 0.00 | 81 | 1016.3 |
| 20260506134734 | 26 | 6 | 13.0 | 18.2 | 0.00 | 0.00 | 0.00 | 80 | 1016.4 |
| 20260506134607 | 26 | 6 | 13.0 | 18.2 | 0.00 | 0.00 | 0.00 | 80 | 1016.4 |
| 20260506134220 | 26 | 1 | 11.3 | 18.2 | 0.00 | 0.00 | 0.00 | 80 | 1016.4 |
| 20260506134107 | 26 | 1 | 11.3 | 18.2 | 0.00 | 0.00 | 0.00 | 80 | 1016.4 |
| 20260506133030 | 26 | 7 | 13.0 | 17.4 | 0.00 | 0.00 | 0.00 | 79 | 1016.3 |
| 20260506132529 | 25 | 22 | 13.9 | 17.4 | 0.00 | 0.00 | 0.00 | 79 | 1016.3 |
| 20260506132029 | 25 | 8 | 11.3 | 14.8 | 0.00 | 0.00 | 0.00 | 79 | 1016.2 |
| 20260506131530 | 25 | 7 | 10.4 | 16.5 | 0.00 | 0.00 | 0.00 | 78 | 1016.1 |
| 20260506131144 | 25 | 7 | 11.3 | 16.5 | 0.00 | 0.00 | 0.00 | 77 | 1016.0 |
| 20260506131030 | 25 | 7 | 11.3 | 16.5 | 0.00 | 0.00 | 0.00 | 77 | 1016.0 |
| 20260506130646 | 25 | 11 | 12.2 | 16.5 | 0.00 | 0.00 | 0.00 | 78 | 1016.0 |
| 20260506130530 | 25 | 11 | 12.2 | 16.5 | 0.00 | 0.00 | 0.00 | 78 | 1016.0 |
| 20260506130153 | 25 | 11 | 12.2 | 17.4 | 0.00 | 0.00 | 0.00 | 77 | 1016.0 |
| 20260506130029 | 25 | 11 | 12.2 | 17.4 | 0.00 | 0.00 | 0.00 | 77 | 1016.0 |
| 20260506125531 | 25 | 21 | 13.9 | 17.4 | 0.00 | 0.00 | 0.00 | 77 | 1015.9 |
| 20260506125030 | 24 | 29 | 13.0 | 16.5 | 0.00 | 0.00 | 0.00 | 79 | 1015.8 |
| 20260506124530 | 24 | 7 | 8.7 | 15.6 | 0.00 | 0.00 | 0.00 | 80 | 1015.7 |
| 20260506124031 | 24 | 354 | 10.4 | 16.5 | 0.00 | 0.00 | 0.00 | 80 | 1015.7 |
| 20260506123529 | 24 | 13 | 10.4 | 16.5 | 0.00 | 0.00 | 0.00 | 80 | 1015.6 |
| 20260506123213 | 24 | 7 | 10.4 | 15.6 | 0.00 | 0.00 | 0.00 | 80 | 1015.6 |
| 20260506123030 | 24 | 7 | 10.4 | 15.6 | 0.00 | 0.00 | 0.00 | 80 | 1015.6 |
| 20260506122532 | 24 | 1 | 10.4 | 15.6 | 0.00 | 0.00 | 0.00 | 81 | 1015.5 |
| 20260506122031 | 24 | 3 | 9.6 | 14.8 | 0.00 | 0.00 | 0.00 | 81 | 1015.5 |
| 20260506121529 | 24 | 4 | 10.4 | 14.8 | 0.00 | 0.00 | 0.00 | 81 | 1015.4 |
| 20260506121029 | 24 | 3 | 9.6 | 13.9 | 0.00 | 0.00 | 0.00 | 81 | 1015.5 |
| 20260506120530 | 24 | 8 | 9.6 | 12.2 | 0.00 | 0.00 | 0.00 | 82 | 1015.4 |
| 20260506120030 | 24 | 360 | 8.7 | 12.2 | 0.00 | 0.00 | 0.00 | 82 | 1015.3 |
| 20260506115530 | 24 | 8 | 8.7 | 12.2 | 0.00 | 0.00 | 0.00 | 83 | 1015.3 |
| 20260506115030 | 24 | 2 | 8.7 | 13.0 | 0.00 | 0.00 | 0.00 | 83 | 1015.1 |
| 20260506114530 | 24 | 7 | 8.7 | 13.0 | 0.00 | 0.00 | 0.00 | 84 | 1015.0 |
| 20260506114030 | 23 | 8 | 7.8 | 11.3 | 0.00 | 0.00 | 0.00 | 84 | 1015.2 |
| 20260506113129 | 23 | 4 | 8.7 | 14.8 | 0.00 | 0.00 | 0.00 | 85 | 1015.2 |
| 20260506112630 | 23 | 7 | 10.4 | 13.9 | 0.00 | 0.00 | 0.00 | 85 | 1015.1 |
| 20260506112130 | 23 | 6 | 7.8 | 11.3 | 0.00 | 0.00 | 0.00 | 84 | 1015.1 |
| 20260506111629 | 23 | 3 | 7.0 | 10.4 | 0.00 | 0.00 | 0.00 | 84 | 1015.1 |
| 20260506111129 | 24 | 10 | 7.0 | 10.4 | 0.00 | 0.00 | 0.00 | 83 | 1015.1 |
| 20260506110629 | 24 | 9 | 7.0 | 10.4 | 0.00 | 0.00 | 0.00 | 83 | 1015.1 |
| 20260506105927 | 24 | 7 | 8.7 | 10.4 | 0.00 | 0.00 | 0.00 | 84 | 1015.1 |
| 20260506105427 | 24 | 9 | 7.8 | 11.3 | 0.00 | 0.00 | 0.00 | 83 | 1015.1 |
| 20260506104927 | 24 | 10 | 7.8 | 11.3 | 0.00 | 0.00 | 0.00 | 83 | 1015.1 |
| 20260506104427 | 24 | 1 | 7.8 | 11.3 | 0.00 | 0.00 | 0.00 | 83 | 1015.0 |
| 20260506103927 | 24 | 6 | 7.0 | 13.0 | 0.00 | 0.00 | 0.00 | 82 | 1015.0 |
| 20260506103427 | 25 | 13 | 7.8 | 13.0 | 0.00 | 0.00 | 0.00 | 83 | 1014.7 |
| 20260506102927 | 24 | 13 | 7.8 | 12.2 | 0.00 | 0.00 | 0.00 | 83 | 1014.6 |
| 20260506102427 | 24 | 13 | 7.0 | 10.4 | 0.00 | 0.00 | 0.00 | 84 | 1014.6 |
| 20260506101927 | 24 | 9 | 7.0 | 9.6 | 0.00 | 0.00 | 0.00 | 84 | 1014.6 |
| 20260506101427 | 24 | 17 | 7.0 | 9.6 | 0.00 | 0.00 | 0.00 | 84 | 1014.6 |
| 20260506100927 | 23 | 13 | 7.0 | 8.7 | 0.00 | 0.00 | 0.00 | 85 | 1014.6 |
| 20260506100427 | 23 | 19 | 6.1 | 7.8 | 0.00 | 0.00 | 0.00 | 84 | 1014.6 |
| 20260506095837 | 24 | 11 | 5.2 | 8.7 | 0.00 | 0.00 | 0.00 | 83 | 1014.6 |
| 20260506095336 | 24 | 13 | 6.1 | 10.4 | 0.00 | 0.00 | 0.00 | 84 | 1014.6 |
| 20260506094838 | 24 | 12 | 6.1 | 10.4 | 0.00 | 0.00 | 0.00 | 84 | 1014.6 |
| 20260506094336 | 24 | 21 | 7.0 | 9.6 | 0.00 | 0.00 | 0.00 | 85 | 1014.6 |
| 20260506093836 | 24 | 23 | 7.0 | 9.6 | 0.00 | 0.00 | 0.00 | 85 | 1014.6 |
| 20260506093337 | 24 | 21 | 7.8 | 9.6 | 0.00 | 0.00 | 0.00 | 86 | 1014.6 |
| 20260506092837 | 23 | 19 | 7.0 | 8.7 | 0.00 | 0.00 | 0.00 | 86 | 1014.6 |
| 20260506091836 | 24 | 6 | 7.0 | 10.4 | 0.00 | 0.00 | 0.00 | 86 | 1014.5 |
| 20260506091336 | 24 | 18 | 7.8 | 9.6 | 0.00 | 0.00 | 0.00 | 85 | 1014.6 |
| 20260506090418 | 24 | 12 | 7.8 | 11.3 | 0.00 | 0.00 | 0.00 | 85 | 1014.5 |
| 20260506090118 | 24 | 15 | 7.8 | 11.3 | 0.00 | 0.00 | 0.00 | 86 | 1014.6 |
| 20260506085917 | 24 | 15 | 7.8 | 11.3 | 0.00 | 0.00 | 0.00 | 86 | 1014.6 |
| 20260506085419 | 24 | 5 | 6.1 | 11.3 | 0.00 | 0.00 | 0.00 | 86 | 1014.6 |
| 20260506084917 | 24 | 19 | 7.8 | 12.2 | 0.00 | 0.00 | 0.00 | 86 | 1014.4 |
| 20260506084417 | 24 | 22 | 8.7 | 12.2 | 0.00 | 0.00 | 0.00 | 87 | 1014.5 |
| 20260506083918 | 23 | 27 | 7.8 | 10.4 | 0.00 | 0.00 | 0.00 | 87 | 1014.5 |
| 20260506083418 | 23 | 12 | 6.1 | 10.4 | 0.00 | 0.00 | 0.00 | 88 | 1014.5 |
| 20260506082917 | 23 | 21 | 7.8 | 10.4 | 0.00 | 0.00 | 0.00 | 88 | 1014.6 |
| 20260506082345 | 23 | 12 | 6.1 | 10.4 | 0.00 | 0.00 | 0.00 | 89 | 1014.6 |
| 20260506081845 | 22 | 18 | 7.8 | 10.4 | 0.00 | 0.00 | 0.00 | 90 | 1014.7 |
| 20260506081345 | 22 | 18 | 6.1 | 7.8 | 0.00 | 0.00 | 0.00 | 89 | 1014.7 |
| 20260506080844 | 22 | 13 | 5.2 | 7.0 | 0.00 | 0.00 | 0.00 | 89 | 1014.7 |
| 20260506080345 | 22 | 20 | 5.2 | 7.0 | 0.00 | 0.00 | 0.00 | 89 | 1014.8 |